Simultaneous Nadir Overpasses (SNOs) Predictions

Prediction of SNOs between GOES-15 and METOP-C Satellite Orbit:

Table of predicted SNOs for the next 14.0 days since TLE Epoch: 6/11/2022
Index Date Time (GOES-15) GOES-15 Lat,Lon METOP-C Lat,Lon Distance(km) Time Diff (sec)
1 06/11/2022 05:53:28 0.22,-128.26 0.73,-126.05 252.30 80
2 06/12/2022 18:14:59 -0.21,-128.33 0.28,-130.61 259.87 80
3 06/13/2022 17:51:40 -0.22,-128.35 -0.81,-125.62 310.51 80
4 06/15/2022 06:13:21 0.21,-128.33 -0.23,-130.22 215.47 80
5 06/16/2022 05:50:02 0.23,-128.34 0.93,-125.24 354.12 80
6 06/17/2022 18:11:34 -0.21,-128.39 0.09,-129.80 159.57 80
7 06/18/2022 17:48:14 -0.23,-128.41 -1.01,-124.80 410.22 80
8 06/20/2022 06:09:56 0.21,-128.39 -0.02,-129.40 115.61 80
9 06/21/2022 05:46:37 0.23,-128.40 1.14,-124.42 453.98 80
10 06/22/2022 18:08:08 -0.21,-128.45 -0.12,-128.98 59.93 80
